Location: Rochester
(43.1610°N, 77.6109°W)
Time: 01:23:32
(UTC-04:00)

Envisat - Visible Passes

Search period start: 28 July 2021 00:00
Search period end: 07 August 2021 00:00
Orbit: 764 x 766 km, 98.2° (Epoch: 27 July)

Date Brightness Start Highest point End Pass type
(mag) Time Alt. Az. Time Alt. Az. Time Alt. Az.
28 Jul 6.3 04:59:43 10° E 05:00:14 10° E 05:00:46 10° E visible
30 Jul 5.7 05:22:25 10° NE 05:25:55 19° E 05:29:25 10° SE visible
02 Aug 5.8 05:11:32 10° NE 05:14:18 15° E 05:17:03 10° ESE visible
05 Aug 6.1 05:01:10 10° ENE 05:02:40 11° E 05:04:08 10° ESE visible
